7 * 24
多渠道服务支持
暂未检索到STARLINK-38094(NORAD 100027)的专属公开信息,结合星链卫星通用特征可作如下参考说明: STARLINK-38094是美国SpaceX公司星链低轨通信星座的组成卫星,NORAD编号100027。作为星链组网的通信载荷,其主要承担全球广域高速互联网接入服务任务,通常运行于高度约500-550公里、倾角多为53度左右的近地轨道,轨道周期约96分钟。截至2026年7月,若已成功入轨,大概率处于正常在轨运行状态,可通过激光星间链路与同星座卫星协同工作,为地面、航空、海事等场景提供低时延通信服务,是星链全球网络覆盖的组成节点。 (注:该卫星专属发射时间、具体轨道参数等信息暂未公开可查,以上内容结合星链卫星通用特征推导)
美国
(US)
| 数据来源 | 国际轨道数据 |
| 星历时间: | 2026-09-15T14:18:53+0800 7小时前 查看轨道信息 |
| 半长轴: | 6749.312km |
| 偏心率: | 0.000417 |
| 轨道倾角: | 70.001° |
| 近地点辐角 | 271.675° |
| 升交点赤经 | 209.470° |
| 平近点角 | 88.397° |
| 近地点: | 368.36km |
| 远地点: | 373.99km |
| 周期: | 91.971分钟 |
| 每日圈数: | 15.65718 |